CZ-2C R/B (28480 NORAD) Tracking and Keplerian Element Data

This shows tracking and keplerian element data for the satellite.

Feedback or suggestion? Click here.




ElementValue
Catalog28480
NameCZ-2C R/B
Epoch Orbit73132
Epoch Day344.21403672
Epoch Year2018
RAAN49.7415
Inclination98.159
Eccentricity0.0143055
Argument of Perigee67.5678
Mean Anonmoly358.333
Mean Motion14.25687961
Decay Rate9E-08
L11 28480U 04046B 18344.21403672 .00000009 00000-0 18369-4 0 9991
L22 28480 98.1590 49.7415 0143055 67.5678 358.3330 14.25687961731323

Live tracking and technical data element details for CZ-2C R/B (NORAD 28480). CZ-2C R/B can be tracked NOW for your location showing map with azimuth and elevation plus other details from your city location.

Track the satellite on the map from your city or location and see movement details for azimuth, elevation, latitude, longitude, range, height, and movement on the map or in text.







IsCatalogInMostPopularTable: catalog: 28480, numindb: 40
Update: records affected: 1



GetName: 28480 CZ-2C R/B

Hit Count: updated at: Thu, 13 Dec 2018 05:10:40 GMT